[[{"header":{"parameterUnit":"m.s-1","parameterCategory":1,"la1":30.2991,"la2":30.254,"lo1":-89.0895,"lo2":-89.0444,"dy":0.0017,"dx":0.0017,"nx":28,"ny":28,"refTime":"2024-04-01T09:00:00:Z","depth":0,"parameterNumber":2,"parameterNumberName":"U-component_of_WINDS"},"data":[0,0,0,0,0,0,0,0,0,0,0,0,0,0,0,0,0,0,0,0,0,0,0,0,0,0,0,0,0,0,0,0,0,0,0,0,0,0,0,0,0,0,0,0,0,0,0,0,0,0,0,0,0,0,0,0,0,0,-2.3756,-2.3757,0,-2.3882,-2.3884,-2.3885,-2.392,-2.3919,-2.3919,-2.3918,-2.4047,-2.4051,-2.4055,0,0,0,0,0,0,0,0,0,0,0,0,0,-2.3545,-2.3549,-2.3756,-2.3757,-2.3759,-2.3882,-2.3884,-2.3885,-2.392,-2.3919,-2.3919,-2.3918,-2.4045,-2.405,-2.4055,0,0,0,0,0,0,0,0,0,0,0,0,0,-2.3651,-2.355,-2.3756,-2.3791,-2.3796,-2.3882,-2.3884,-2.3886,-2.392,-2.3919,-2.3918,-2.3917,-2.4044,-2.405,-2.4056,-2.4115,0,0,-2.4074,-2.4077,0,0,0,0,0,0,0,0,-2.3645,-2.3658,-2.3784,-2.3789,-2.3794,-2.3884,-2.3857,-2.3963,-2.3921,-2.3873,-2.3918,-2.3917,-2.3993,-2.4004,-2.403,-2.4121,-2.4126,-2.4075,-2.4079,-2.4081,-2.4083,0,0,0,0,0,0,0,-2.3637,-2.3653,-2.3806,-2.3786,-2.3792,-2.3801,-2.3815,-2.3877,-2.3938,-2.3877,-2.388,-2.3895,-2.3996,-2.4024,-2.4033,-2.4128,-2.4075,-2.408,-2.4084,-2.4086,-2.4275,-2.4276,0,0,0,0,0,0,-2.3624,-2.3647,-2.3802,-2.381,-2.3715,-2.3806,-2.3821,-2.3856,-2.3937,-2.3948,-2.3895,-2.3896,-2.4014,-2.4026,-2.4038,-2.4112,-2.4081,-2.4087,-2.4091,-2.4273,-2.4275,-2.4277,0,0,0,0,0,0,-2.3619,-2.3637,-2.3797,-2.3729,-2.375,-2.381,-2.385,-2.3859,-2.3887,-2.3951,-2.3962,-2.3912,-2.4013,-2.4029,-2.4096,-2.4117,-2.409,-2.4095,-2.4272,-2.4274,-2.4276,-2.4261,0,0,0,0,0,0,-2.3613,-2.3636,-2.3658,-2.3729,-2.3753,-2.3852,-2.3851,-2.3863,-2.3898,-2.3899,-2.397,-2.398,-2.4014,-2.4086,-2.4102,-2.4125,-2.41,-2.427,-2.4273,-2.4275,-2.426,-2.4262,-2.4264,0,0,0,0,0,-2.3605,-2.3649,-2.3659,-2.3678,-2.3783,-2.3853,-2.3867,-2.3905,-2.3899,-2.3923,-2.3964,-2.3978,-2.4112,-2.4093,-2.411,-2.4136,-2.4269,-2.4272,-2.4275,-2.4259,-2.4262,-2.4264,0,0,0,0,0,0,-2.3579,-2.3659,-2.3671,-2.3739,-2.3789,-2.3859,-2.389,-2.3907,-2.3959,-2.3959,-2.4003,-2.4019,-2.4082,-2.4116,-2.4092,-2.4198,-2.4191,-2.4198,-2.4173,-2.4176,-2.4178,-2.4168,-2.4105,0,0,0,0,0,-2.3581,-2.3631,-2.3699,-2.3752,-2.3777,-2.3829,-2.3861,-2.3886,-2.3939,-2.396,-2.4006,-2.4058,-2.4112,-2.4146,-2.4199,-2.4266,-2.4281,-2.4292,-2.4294,-2.4296,-2.4301,-2.4338,-2.4344,-2.4286,-2.4286,-2.4286,0,0,-2.3585,-2.3636,-2.3664,-2.3748,-2.379,-2.3841,-2.3846,-2.39,-2.3938,-2.3969,-2.4034,-2.407,-2.413,-2.4197,-2.4229,-2.4227,-2.432,-2.43,-2.43,-2.4304,-2.4342,-2.4347,-2.4352,-2.4288,-2.4288,-2.4288,0,0,-2.362,-2.3663,-2.3712,-2.3754,-2.3817,-2.3852,-2.3864,-2.3932,-2.3957,-2.4023,-2.4047,-2.4094,-2.4185,-2.4227,-2.4261,-2.4312,-2.4327,-2.4328,-2.434,-2.4376,-2.438,-2.4385,-2.4402,-2.4408,-2.4333,-2.4333,-2.4333,0,-2.3617,-2.3695,-2.3735,-2.3788,-2.3824,-2.3854,-2.3905,-2.3943,-2.402,-2.4045,-2.4042,-2.4158,-2.4201,-2.4278,-2.4291,-2.4317,-2.4332,-2.432,-2.4377,-2.4381,-2.4386,-2.4403,-2.441,-2.4333,-2.4333,-2.4333,-2.4333,0,-2.3689,-2.3743,-2.3775,-2.3849,-2.3889,-2.394,-2.3988,-2.4023,-2.4045,-2.408,-2.4148,-2.42,-2.4265,-2.4285,-2.4307,-2.4366,-2.4363,-2.4368,-2.4362,-2.439,-2.4407,-2.4414,-2.4332,-2.4333,-2.4333,-2.4333,0,0,-2.3709,-2.3805,-2.3816,-2.385,-2.3923,-2.3965,-2.4018,-2.4081,-2.4111,-2.4163,-2.4208,-2.4286,-2.4291,-2.4329,-2.4356,-2.4388,-2.4425,-2.439,-2.4392,-2.4394,-2.4493,-2.4488,-2.4495,-2.4436,-2.4438,-2.4439,-2.4488,0,-2.3752,-2.3847,-2.3885,-2.3962,-2.4012,-2.4043,-2.4089,-2.4138,-2.4173,-2.422,-2.4259,-2.4312,-2.4316,-2.4339,-2.4372,-2.4413,-2.4445,-2.4411,-2.4478,-2.448,-2.4461,-2.4504,-2.4499,-2.4542,-2.4495,-2.4496,-2.4497,0,-2.3814,-2.3868,-2.395,-2.4017,-2.4039,-2.408,-2.4141,-2.4186,-2.4243,-2.4266,-2.4309,-2.4334,-2.439,-2.4382,-2.4461,-2.4436,-2.4466,-2.4491,-2.4493,-2.45,-2.4489,-2.4511,-2.4557,-2.4563,-2.4508,-2.4507,-2.4506,0,-2.382,-2.3912,-2.3973,-2.4002,-2.4081,-2.4109,-2.4144,-2.42,-2.4235,-2.4289,-2.4313,-2.4372,-2.4404,-2.445,-2.4491,-2.4481,-2.4565,-2.456,-2.4586,-2.4585,-2.4601,-2.4599,-2.4652,-2.4622,-2.4622,-2.4622,-2.4622,0,-2.3863,-2.3912,-2.3977,-2.4014,-2.407,-2.4114,-2.4168,-2.4205,-2.4254,-2.43,-2.433,-2.4372,-2.4423,-2.4472,-2.4504,-2.4564,-2.4579,-2.4599,-2.4606,-2.4595,-2.4593,-2.4615,-2.4613,-2.4624,-2.4623,-2.4623,-2.4623,0,-2.3878,-2.3924,-2.3992,-2.4062,-2.4081,-2.4119,-2.4179,-2.4217,-2.4253,-2.431,-2.4326,-2.4383,-2.4441,-2.4487,-2.4563,-2.4585,-2.4648,-2.4657,-2.4629,-2.4633,-2.4655,-2.4652,-2.4723,-2.4734,-2.4697,-2.4698,-2.4698,0,-2.3903,-2.3941,-2.4015,-2.4048,-2.4082,-2.4134,-2.417,-2.4215,-2.4252,-2.432,-2.435,-2.4411,-2.4462,-2.4554,-2.4602,-2.4661,-2.4671,-2.4692,-2.468,-2.4668,-2.4671,-2.4668,-2.4672,-2.4693,-2.4693,-2.4693,-2.4693,0,-2.3941,-2.3961,-2.4013,-2.4073,-2.4116,-2.4165,-2.4215,-2.424,-2.4294,-2.4334,-2.4394,-2.4434,-2.4512,-2.4572,-2.4636,-2.4672,-2.4691,-2.4697,-2.4706,-2.4694,-2.4676,-2.4686,-2.4632,-2.4695,-2.4695,-2.4695,-2.4695,-2.4694,-2.3961,-2.3996,-2.4054,-2.4111,-2.4153,-2.4199,-2.4238,-2.4279,-2.433,-2.4397,-2.4421,-2.4483,-2.454,-2.4628,-2.4664,-2.4714,-2.4714,-2.4727,-2.473,-2.4733,-2.4731,-2.4669,-2.4725,-2.4725,-2.4725,-2.4726,-2.4726,0,-2.4,-2.4039,-2.4091,-2.4159,-2.4204,-2.4219,-2.4276,-2.4312,-2.4366,-2.4417,-2.4467,-2.4537,-2.4595,-2.4648,-2.471,-2.4739,-2.475,-2.4753,-2.4751,-2.4759,-2.4727,-2.4713,-2.4744,-2.4744,-2.4744,-2.4744,-2.4744,-2.4744,-2.4026,-2.4087,-2.4114,-2.4196,-2.4235,-2.4296,-2.4327,-2.4369,-2.4411,-2.4487,-2.4536,-2.457,-2.4622,-2.4688,-2.4742,-2.4756,-2.4777,-2.4778,-2.4795,-2.4764,-2.4761,-2.4759,-2.4746,-2.4783,-2.4783,-2.4822,-2.4823,-2.4823]},{"header":{"parameterUnit":"m.s-1","parameterCategory":1,"la1":30.2991,"la2":30.254,"lo1":-89.0895,"lo2":-89.0444,"dy":0.0017,"dx":0.0017,"nx":28,"ny":28,"refTime":"2024-04-01T09:00:00:Z","depth":0,"parameterNumber":3,"parameterNumberName":"V-component_of_WINDS"},"data":[0,0,0,0,0,0,0,0,0,0,0,0,0,0,0,0,0,0,0,0,0,0,0,0,0,0,0,0,0,0,0,0,0,0,0,0,0,0,0,0,0,0,0,0,0,0,0,0,0,0,0,0,0,0,0,0,0,0,5.662,5.6621,0,5.6718,5.6719,5.672,5.669,5.6688,5.6686,5.6684,5.6779,5.6783,5.6788,0,0,0,0,0,0,0,0,0,0,0,0,0,5.6402,5.6407,5.662,5.6621,5.6623,5.6718,5.6719,5.6721,5.669,5.6688,5.6685,5.6683,5.6778,5.6783,5.6788,0,0,0,0,0,0,0,0,0,0,0,0,0,5.6498,5.6408,5.662,5.6619,5.662,5.6718,5.6719,5.6721,5.6691,5.6688,5.6685,5.6682,5.6776,5.6782,5.6789,5.6892,0,0,5.6809,5.6812,0,0,0,0,0,0,0,0,5.6493,5.6506,5.6618,5.6619,5.662,5.6689,5.6678,5.6778,5.6692,5.6664,5.6684,5.668,5.6751,5.676,5.6785,5.6897,5.6901,5.681,5.6814,5.6817,5.6819,0,0,0,0,0,0,0,5.6486,5.6502,5.6659,5.662,5.6621,5.6612,5.6623,5.6697,5.6723,5.6666,5.6664,5.6676,5.6751,5.6778,5.6787,5.6902,5.681,5.6816,5.682,5.6823,5.7105,5.7108,0,0,0,0,0,0,5.6479,5.6497,5.6656,5.6662,5.6548,5.6619,5.663,5.667,5.6723,5.6728,5.6679,5.6674,5.6769,5.6779,5.679,5.6916,5.6817,5.6823,5.6827,5.7102,5.7106,5.711,0,0,0,0,0,0,5.6475,5.6494,5.6652,5.6579,5.6598,5.6626,5.6671,5.6673,5.6701,5.6732,5.6737,5.6702,5.6766,5.6781,5.6868,5.6919,5.6826,5.6832,5.7098,5.7103,5.7108,5.7168,0,0,0,0,0,0,5.6469,5.6493,5.6533,5.658,5.6602,5.6729,5.6674,5.6678,5.6713,5.6708,5.6755,5.676,5.6765,5.6858,5.6874,5.6926,5.6838,5.7093,5.71,5.7106,5.7161,5.7174,5.7186,0,0,0,0,0,5.6461,5.6544,5.6535,5.6554,5.6653,5.6732,5.6745,5.6751,5.6717,5.6758,5.6778,5.6758,5.691,5.6867,5.6885,5.694,5.709,5.7098,5.7106,5.7156,5.7172,5.7185,0,0,0,0,0,0,5.65,5.655,5.6541,5.6642,5.6683,5.6727,5.6778,5.6767,5.6817,5.6811,5.6814,5.6825,5.6915,5.6936,5.6887,5.7043,5.6995,5.7007,5.7027,5.7042,5.7054,5.7048,5.6843,0,0,0,0,0,5.6521,5.6582,5.6622,5.6707,5.6729,5.675,5.6784,5.6786,5.6828,5.6845,5.6872,5.6912,5.6969,5.7006,5.706,5.7164,5.7174,5.721,5.7222,5.7232,5.7243,5.7301,5.7318,5.7136,5.7135,5.7135,0,0,5.6563,5.6598,5.6636,5.6716,5.6748,5.6811,5.6765,5.6832,5.6879,5.6854,5.694,5.6961,5.7006,5.7102,5.7146,5.7123,5.7295,5.7242,5.725,5.7255,5.731,5.7328,5.7343,5.7141,5.714,5.7139,0,0,5.6674,5.6706,5.6782,5.6816,5.6866,5.688,5.6898,5.6944,5.6958,5.7044,5.7028,5.7082,5.718,5.7214,5.7243,5.7368,5.7353,5.7386,5.7449,5.7506,5.752,5.7533,5.7579,5.7595,5.7396,5.7396,5.7396,0,5.672,5.6816,5.6821,5.6892,5.6928,5.6911,5.6987,5.7019,5.7084,5.7108,5.7081,5.7205,5.7234,5.7339,5.737,5.7394,5.7415,5.7381,5.7518,5.7531,5.7543,5.7587,5.7604,5.74,5.7399,5.7399,5.7399,0,5.6871,5.6937,5.6992,5.7058,5.71,5.7172,5.7189,5.723,5.7227,5.7244,5.7332,5.7367,5.7428,5.7453,5.745,5.7558,5.7542,5.7517,5.7468,5.7564,5.7605,5.7622,5.7405,5.7404,5.7403,5.7402,0,0,5.7008,5.7078,5.7099,5.7129,5.7184,5.7235,5.7307,5.737,5.7405,5.745,5.7511,5.7595,5.7573,5.7607,5.7607,5.7657,5.7756,5.7625,5.7626,5.765,5.7879,5.7899,5.7919,5.7745,5.7748,5.7751,5.7875,0,5.7125,5.7254,5.7263,5.7379,5.7441,5.7426,5.7489,5.7529,5.7547,5.7601,5.7618,5.7679,5.7644,5.7665,5.7713,5.7734,5.7802,5.7724,5.7802,5.7805,5.7793,5.794,5.7962,5.8077,5.7892,5.7894,5.7896,0,5.7278,5.7331,5.7455,5.7503,5.753,5.7586,5.7645,5.7697,5.7742,5.7751,5.7791,5.7785,5.7858,5.7806,5.7908,5.7855,5.7887,5.7902,5.7906,5.7915,5.7857,5.7954,5.8114,5.8133,5.7922,5.7919,5.7918,0,5.7369,5.7471,5.7559,5.7585,5.7643,5.7683,5.7709,5.7751,5.7789,5.7839,5.7864,5.7921,5.7953,5.7998,5.8008,5.7969,5.8109,5.8058,5.8119,5.8119,5.8151,5.8149,5.832,5.8168,5.8168,5.8168,5.8167,0,5.7499,5.7576,5.7601,5.7655,5.774,5.7748,5.7832,5.7855,5.7893,5.795,5.7939,5.7993,5.8002,5.8058,5.8066,5.815,5.8163,5.8173,5.8174,5.8175,5.8174,5.8197,5.819,5.8172,5.8171,5.817,5.817,0,5.7615,5.7635,5.773,5.7778,5.7792,5.7853,5.7893,5.7945,5.7961,5.8035,5.8052,5.8077,5.8143,5.8157,5.8233,5.8239,5.8339,5.8331,5.8325,5.8325,5.8386,5.8381,5.8579,5.8606,5.8435,5.8437,5.8438,0,5.7698,5.7757,5.7813,5.7852,5.788,5.7943,5.7982,5.7992,5.8033,5.809,5.8135,5.8199,5.8252,5.8357,5.8381,5.844,5.8435,5.85,5.8444,5.8443,5.8438,5.8436,5.8442,5.8512,5.8513,5.8515,5.8516,0,5.7844,5.7851,5.7909,5.7972,5.802,5.8068,5.8115,5.8147,5.8163,5.8209,5.8278,5.8319,5.8398,5.8463,5.8522,5.8547,5.8535,5.8534,5.8552,5.8554,5.8549,5.8554,5.8356,5.853,5.8528,5.8527,5.8526,5.8526,5.7947,5.8,5.8048,5.8114,5.815,5.8194,5.8246,5.827,5.8328,5.8396,5.8397,5.8472,5.8516,5.8595,5.8623,5.8681,5.866,5.8685,5.8692,5.8699,5.8706,5.8538,5.8691,5.8691,5.8691,5.869,5.869,0,5.8094,5.8125,5.8185,5.8252,5.8304,5.8289,5.834,5.8384,5.8451,5.8494,5.8547,5.8626,5.8688,5.8719,5.8781,5.8821,5.8817,5.8837,5.8835,5.8841,5.8719,5.8699,5.884,5.884,5.884,5.884,5.8839,5.8839,5.8177,5.8267,5.828,5.8387,5.8416,5.8492,5.8522,5.8563,5.8598,5.8687,5.874,5.876,5.8798,5.8863,5.892,5.8927,5.8951,5.8975,5.8979,5.8865,5.885,5.8835,5.8816,5.8979,5.898,5.9097,5.9098,5.9099]}]]